| time (UTC) | temp F | wind direction | speed MPH | gust MPH | rain 1hr in | rain 24hr in | rain mn in | humidity % | barometer mb |
| 20260509055027 | 41 | 178 | 1.0 | 1.0 | 0.00 | 0.00 | 0.00 | 85 | 1023.0 |
| 20260509054523 | 40 | 233 | 0.0 | 0.0 | 0.00 | 0.00 | 0.00 | 86 | 1023.2 |
| 20260509054021 | 40 | 183 | 1.0 | 1.0 | 0.00 | 0.00 | 0.00 | 86 | 1023.2 |
| 20260509053520 | 40 | 223 | 0.0 | 0.0 | 0.00 | 0.00 | 0.00 | 85 | 1023.3 |
| 20260509053016 | 41 | 225 | 0.0 | 1.0 | 0.00 | 0.00 | 0.00 | 84 | 1023.3 |
| 20260509052514 | 40 | 212 | 0.0 | 0.0 | 0.00 | 0.00 | 0.00 | 85 | 1023.1 |
| 20260509052012 | 41 | 241 | 0.0 | 0.0 | 0.00 | 0.00 | 0.00 | 85 | 1023.3 |
| 20260509051509 | 41 | 205 | 0.0 | 1.0 | 0.00 | 0.00 | 0.00 | 85 | 1023.3 |
| 20260509051006 | 41 | 221 | 0.0 | 0.0 | 0.00 | 0.00 | 0.00 | 84 | 1023.3 |
| 20260509050502 | 42 | 222 | 0.0 | 0.0 | 0.00 | 0.00 | 0.00 | 81 | 1023.6 |
| 20260509045959 | 41 | 206 | 0.0 | 0.0 | 0.00 | 0.00 | 0.00 | 83 | 1023.6 |
| 20260509045456 | 41 | 210 | 0.0 | 0.0 | 0.00 | 0.00 | 0.00 | 84 | 1024.0 |
| 20260509044953 | 42 | 199 | 0.0 | 0.0 | 0.00 | 0.00 | 0.00 | 84 | 1024.0 |
| 20260509044451 | 42 | 218 | 0.0 | 0.0 | 0.00 | 0.00 | 0.00 | 85 | 1023.8 |
| 20260509043948 | 42 | 210 | 0.0 | 0.0 | 0.00 | 0.00 | 0.00 | 84 | 1024.0 |
| 20260509043444 | 43 | 205 | 1.0 | 1.0 | 0.00 | 0.00 | 0.00 | 83 | 1024.4 |
| 20260509042939 | 44 | 222 | 0.0 | 0.0 | 0.00 | 0.00 | 0.00 | 81 | 1024.1 |
| 20260509042437 | 45 | 226 | 0.0 | 0.0 | 0.00 | 0.00 | 0.00 | 79 | 1024.2 |
| 20260509041933 | 46 | 227 | 0.0 | 1.0 | 0.00 | 0.00 | 0.00 | 76 | 1024.1 |
| 20260509041430 | 46 | 221 | 0.0 | 0.0 | 0.00 | 0.00 | 0.00 | 76 | 1024.1 |
| 20260509040928 | 46 | 273 | 2.0 | 2.0 | 0.00 | 0.00 | 0.00 | 76 | 1024.1 |
| 20260509040426 | 46 | 243 | 1.0 | 1.0 | 0.00 | 0.00 | 0.00 | 76 | 1023.8 |
| 20260509035922 | 46 | 220 | 0.0 | 0.0 | 0.00 | 0.00 | 0.00 | 76 | 1023.8 |
| 20260509035419 | 46 | 222 | 0.0 | 0.0 | 0.00 | 0.00 | 0.00 | 77 | 1024.0 |
| 20260509034915 | 46 | 200 | 1.0 | 1.0 | 0.00 | 0.00 | 0.00 | 79 | 1024.4 |
| 20260509034414 | 46 | 225 | 0.0 | 0.0 | 0.00 | 0.00 | 0.00 | 79 | 1024.4 |
| 20260509033910 | 46 | 151 | 2.0 | 2.0 | 0.00 | 0.00 | 0.00 | 77 | 1024.5 |
| 20260509033407 | 46 | 205 | 1.0 | 1.0 | 0.00 | 0.00 | 0.00 | 78 | 1024.4 |
| 20260509032904 | 47 | 215 | 0.0 | 0.0 | 0.00 | 0.00 | 0.00 | 77 | 1024.6 |
| 20260509032401 | 47 | 221 | 2.0 | 2.0 | 0.00 | 0.00 | 0.00 | 75 | 1024.5 |
| 20260509031859 | 46 | 160 | 3.0 | 3.0 | 0.00 | 0.00 | 0.00 | 77 | 1024.6 |
| 20260509031356 | 47 | 234 | 1.0 | 1.0 | 0.00 | 0.00 | 0.00 | 80 | 1025.0 |
| 20260509030853 | 46 | 199 | 1.0 | 1.0 | 0.00 | 0.00 | 0.00 | 76 | 1024.2 |
| 20260509030351 | 46 | 221 | 0.0 | 0.0 | 0.00 | 0.00 | 0.00 | 76 | 1024.4 |
| 20260509025848 | 46 | 223 | 0.0 | 0.0 | 0.00 | 0.00 | 0.00 | 77 | 1024.1 |
| 20260509025343 | 47 | 220 | 0.0 | 0.0 | 0.00 | 0.00 | 0.00 | 75 | 1023.7 |
| 20260509024839 | 48 | 222 | 0.0 | 0.0 | 0.00 | 0.00 | 0.00 | 75 | 1024.1 |
| 20260509024335 | 48 | 226 | 0.0 | 0.0 | 0.00 | 0.00 | 0.00 | 74 | 1023.7 |
| 20260509023833 | 48 | 313 | 1.0 | 1.0 | 0.00 | 0.00 | 0.00 | 74 | 1023.7 |
| 20260509023330 | 49 | 160 | 2.0 | 2.0 | 0.00 | 0.00 | 0.00 | 72 | 1023.5 |
| 20260509022827 | 50 | 227 | 1.0 | 1.0 | 0.00 | 0.00 | 0.00 | 70 | 1023.5 |
| 20260509022324 | 49 | 163 | 2.0 | 2.0 | 0.00 | 0.00 | 0.00 | 71 | 1023.5 |
| 20260509021820 | 49 | 222 | 0.0 | 0.0 | 0.00 | 0.00 | 0.00 | 70 | 1023.6 |
| 20260509021318 | 49 | 186 | 1.0 | 2.0 | 0.00 | 0.00 | 0.00 | 71 | 1023.8 |
| 20260509020815 | 49 | 203 | 1.0 | 1.0 | 0.00 | 0.00 | 0.00 | 73 | 1023.7 |
| 20260509020313 | 50 | 224 | 1.0 | 1.0 | 0.00 | 0.00 | 0.00 | 72 | 1023.6 |
| 20260509015811 | 51 | 241 | 0.0 | 0.0 | 0.00 | 0.00 | 0.00 | 67 | 1023.5 |
| 20260509015309 | 51 | 198 | 1.0 | 1.0 | 0.00 | 0.00 | 0.00 | 67 | 1023.2 |
| 20260509014805 | 52 | 196 | 1.0 | 1.0 | 0.00 | 0.00 | 0.00 | 66 | 1023.2 |
| 20260509014302 | 52 | 224 | 0.0 | 0.0 | 0.00 | 0.00 | 0.00 | 66 | 1023.5 |
| 20260509013758 | 53 | 221 | 0.0 | 0.0 | 0.00 | 0.00 | 0.00 | 62 | 1023.3 |
| 20260509013254 | 53 | 197 | 1.0 | 1.0 | 0.00 | 0.00 | 0.00 | 62 | 1023.2 |
| 20260509012751 | 54 | 211 | 0.0 | 1.0 | 0.00 | 0.00 | 0.00 | 62 | 1023.3 |
| 20260509012248 | 54 | 210 | 0.0 | 0.0 | 0.00 | 0.00 | 0.00 | 63 | 1023.3 |
| 20260509011745 | 55 | 223 | 0.0 | 0.0 | 0.00 | 0.00 | 0.00 | 60 | 1023.2 |
| 20260509011243 | 55 | 234 | 0.0 | 0.0 | 0.00 | 0.00 | 0.00 | 59 | 1023.2 |
| 20260509010740 | 55 | 240 | 0.0 | 0.0 | 0.00 | 0.00 | 0.00 | 58 | 1023.1 |
| 20260509010236 | 56 | 188 | 1.0 | 2.0 | 0.00 | 0.00 | 0.00 | 57 | 1023.0 |
| 20260509005734 | 56 | 191 | 1.0 | 1.0 | 0.00 | 0.00 | 0.00 | 59 | 1023.1 |
| 20260509005231 | 57 | 225 | 0.0 | 0.0 | 0.00 | 0.00 | 0.00 | 57 | 1023.1 |
| 20260509004725 | 57 | 228 | 1.0 | 2.0 | 0.00 | 0.00 | 0.00 | 54 | 1022.8 |
| 20260509004224 | 57 | 123 | 2.0 | 3.0 | 0.00 | 0.00 | 0.00 | 56 | 1023.1 |
| 20260509003721 | 57 | 349 | 4.0 | 6.0 | 0.00 | 0.00 | 0.00 | 55 | 1023.0 |
| 20260509003219 | 56 | 218 | 3.0 | 3.0 | 0.00 | 0.00 | 0.00 | 56 | 1023.0 |
| 20260509002716 | 56 | 224 | 0.0 | 0.0 | 0.00 | 0.00 | 0.00 | 57 | 1023.1 |
| 20260509002214 | 56 | 303 | 3.0 | 3.0 | 0.00 | 0.00 | 0.00 | 57 | 1023.1 |
| 20260509001711 | 56 | 262 | 1.0 | 1.0 | 0.00 | 0.00 | 0.00 | 56 | 1023.0 |
| 20260509001206 | 58 | 152 | 2.0 | 2.0 | 0.00 | 0.00 | 0.00 | 55 | 1023.1 |
| 20260509000705 | 56 | 305 | 0.0 | 1.0 | 0.00 | 0.00 | 0.00 | 56 | 1023.1 |
| 20260509000204 | 56 | 206 | 1.0 | 2.0 | 0.00 | 0.00 | 0.00 | 57 | 1023.3 |
| 20260508235658 | 56 | 106 | 3.0 | 6.0 | 0.00 | 0.00 | 0.00 | 56 | 1023.2 |
| 20260508235155 | 56 | 195 | 1.0 | 1.0 | 0.00 | 0.00 | 0.00 | 57 | 1023.2 |
| 20260508234652 | 57 | 210 | 0.0 | 0.0 | 0.00 | 0.00 | 0.00 | 57 | 1023.1 |
| 20260508234148 | 57 | 220 | 0.0 | 0.0 | 0.00 | 0.00 | 0.00 | 56 | 1023.0 |
| 20260508233643 | 57 | 243 | 2.0 | 2.0 | 0.00 | 0.00 | 0.00 | 56 | 1023.0 |
| 20260508233140 | 57 | 264 | 0.0 | 1.0 | 0.00 | 0.00 | 0.00 | 56 | 1023.0 |
| 20260508232637 | 56 | 111 | 3.0 | 3.0 | 0.00 | 0.00 | 0.00 | 57 | 1023.0 |
| 20260508232133 | 56 | 215 | 2.0 | 2.0 | 0.00 | 0.00 | 0.00 | 57 | 1022.8 |
| 20260508231631 | 57 | 175 | 1.0 | 2.0 | 0.00 | 0.00 | 0.00 | 56 | 1022.6 |
| 20260508231127 | 57 | 259 | 3.0 | 3.0 | 0.00 | 0.00 | 0.00 | 56 | 1022.7 |
| 20260508230618 | 57 | 33 | 5.0 | 7.0 | 0.00 | 0.00 | 0.00 | 56 | 1023.0 |
| 20260508230115 | 57 | 231 | 3.0 | 3.0 | 0.00 | 0.00 | 0.00 | 55 | 1022.6 |
| 20260508225613 | 58 | 143 | 0.0 | 1.0 | 0.00 | 0.00 | 0.00 | 55 | 1022.7 |
| 20260508225108 | 57 | 221 | 0.0 | 1.0 | 0.00 | 0.00 | 0.00 | 56 | 1022.8 |
| 20260508224607 | 57 | 225 | 0.0 | 0.0 | 0.00 | 0.00 | 0.00 | 55 | 1022.8 |
| 20260508224104 | 57 | 97 | 2.0 | 2.0 | 0.00 | 0.00 | 0.00 | 55 | 1022.7 |
| 20260508223602 | 58 | 227 | 2.0 | 3.0 | 0.00 | 0.00 | 0.00 | 53 | 1022.7 |
| 20260508223059 | 57 | 351 | 2.0 | 3.0 | 0.00 | 0.00 | 0.00 | 55 | 1022.5 |
| 20260508222556 | 59 | 169 | 2.0 | 2.0 | 0.00 | 0.00 | 0.00 | 54 | 1022.7 |
| 20260508222053 | 59 | 261 | 3.0 | 3.0 | 0.00 | 0.00 | 0.00 | 54 | 1023.0 |
| 20260508221549 | 57 | 104 | 1.0 | 1.0 | 0.00 | 0.00 | 0.00 | 53 | 1022.8 |
| 20260508221045 | 59 | 187 | 3.0 | 3.0 | 0.00 | 0.00 | 0.00 | 52 | 1022.7 |
| 20260508220542 | 59 | 80 | 3.0 | 5.0 | 0.00 | 0.00 | 0.00 | 53 | 1022.8 |
| 20260508220038 | 59 | 222 | 1.0 | 2.0 | 0.00 | 0.00 | 0.00 | 53 | 1022.8 |
| 20260508215535 | 60 | 56 | 1.0 | 2.0 | 0.00 | 0.00 | 0.00 | 50 | 1023.0 |
| 20260508215032 | 61 | 56 | 4.0 | 6.0 | 0.00 | 0.00 | 0.00 | 50 | 1022.8 |
| 20260508214530 | 60 | 232 | 2.0 | 2.0 | 0.00 | 0.00 | 0.00 | 51 | 1022.8 |
| 20260508214026 | 61 | 121 | 4.0 | 7.0 | 0.00 | 0.00 | 0.00 | 50 | 1022.8 |
| 20260508213524 | 62 | 243 | 3.0 | 5.0 | 0.00 | 0.00 | 0.00 | 50 | 1022.7 |
| 20260508213019 | 61 | 136 | 6.0 | 9.0 | 0.00 | 0.00 | 0.00 | 49 | 1022.8 |
| 20260508212515 | 61 | 179 | 2.0 | 6.0 | 0.00 | 0.00 | 0.00 | 51 | 1023.0 |
| 20260508212012 | 61 | 199 | 5.0 | 7.0 | 0.00 | 0.00 | 0.00 | 50 | 1022.8 |
| 20260508211507 | 60 | 210 | 2.0 | 2.0 | 0.00 | 0.00 | 0.00 | 51 | 1022.7 |
| 20260508211004 | 58 | 340 | 3.0 | 5.0 | 0.00 | 0.00 | 0.00 | 54 | 1023.0 |
| 20260508210500 | 57 | 295 | 3.0 | 3.0 | 0.00 | 0.00 | 0.00 | 55 | 1023.2 |
| 20260508205957 | 59 | 192 | 4.0 | 7.0 | 0.00 | 0.00 | 0.00 | 55 | 1023.1 |
| 20260508205455 | 59 | 110 | 3.0 | 6.0 | 0.00 | 0.00 | 0.00 | 53 | 1023.1 |
| 20260508204951 | 63 | 301 | 2.0 | 2.0 | 0.00 | 0.00 | 0.00 | 49 | 1023.2 |
| 20260508204448 | 58 | 259 | 2.0 | 3.0 | 0.00 | 0.00 | 0.00 | 54 | 1023.1 |
| 20260508203943 | 58 | 48 | 2.0 | 3.0 | 0.00 | 0.00 | 0.00 | 53 | 1023.0 |
| 20260508203440 | 58 | 318 | 3.0 | 5.0 | 0.00 | 0.00 | 0.00 | 53 | 1023.2 |
| 20260508202935 | 57 | 280 | 1.0 | 2.0 | 0.00 | 0.00 | 0.00 | 55 | 1023.3 |
| 20260508202433 | 57 | 250 | 3.0 | 3.0 | 0.00 | 0.00 | 0.00 | 56 | 1023.2 |
| 20260508201930 | 59 | 188 | 5.0 | 8.0 | 0.00 | 0.00 | 0.00 | 54 | 1023.3 |
| 20260508201427 | 58 | 320 | 2.0 | 2.0 | 0.00 | 0.00 | 0.00 | 53 | 1023.3 |
| 20260508200924 | 59 | 120 | 8.0 | 14.0 | 0.00 | 0.00 | 0.00 | 52 | 1023.5 |
| 20260508200421 | 58 | 156 | 0.0 | 1.0 | 0.00 | 0.00 | 0.00 | 56 | 1023.0 |
| 20260508195915 | 58 | 142 | 4.0 | 6.0 | 0.00 | 0.00 | 0.00 | 55 | 1023.6 |
| 20260508195413 | 59 | 347 | 3.0 | 5.0 | 0.00 | 0.00 | 0.00 | 54 | 1023.5 |
| 20260508194908 | 59 | 169 | 4.0 | 5.0 | 0.00 | 0.00 | 0.00 | 54 | 1023.5 |
| 20260508194406 | 58 | 47 | 2.0 | 3.0 | 0.00 | 0.00 | 0.00 | 54 | 1023.2 |
| 20260508193857 | 58 | 274 | 3.0 | 5.0 | 0.00 | 0.00 | 0.00 | 56 | 1023.7 |
| 20260508193354 | 58 | 36 | 2.0 | 3.0 | 0.00 | 0.00 | 0.00 | 58 | 1023.6 |
| 20260508192850 | 58 | 217 | 2.0 | 3.0 | 0.00 | 0.00 | 0.00 | 54 | 1023.8 |
| 20260508192347 | 57 | 124 | 3.0 | 3.0 | 0.00 | 0.00 | 0.00 | 55 | 1023.7 |
| 20260508191845 | 58 | 110 | 5.0 | 6.0 | 0.00 | 0.00 | 0.00 | 57 | 1023.8 |
| 20260508191342 | 57 | 106 | 2.0 | 3.0 | 0.00 | 0.00 | 0.00 | 56 | 1023.6 |
| 20260508190839 | 58 | 121 | 4.0 | 5.0 | 0.00 | 0.00 | 0.00 | 54 | 1023.6 |
| 20260508190335 | 58 | 313 | 4.0 | 6.0 | 0.00 | 0.00 | 0.00 | 56 | 1023.7 |
| 20260508185831 | 58 | 23 | 4.0 | 7.0 | 0.00 | 0.00 | 0.00 | 56 | 1023.8 |
| 20260508185329 | 57 | 328 | 3.0 | 5.0 | 0.00 | 0.00 | 0.00 | 58 | 1023.6 |
| 20260508184826 | 58 | 10 | 3.0 | 3.0 | 0.00 | 0.00 | 0.00 | 56 | 1023.8 |
| 20260508184323 | 56 | 131 | 4.0 | 7.0 | 0.00 | 0.00 | 0.00 | 56 | 1023.7 |
| 20260508183820 | 56 | 76 | 4.0 | 6.0 | 0.00 | 0.00 | 0.00 | 56 | 1023.7 |
| 20260508183317 | 56 | 60 | 3.0 | 5.0 | 0.00 | 0.00 | 0.00 | 56 | 1024.1 |
| 20260508182812 | 56 | 176 | 4.0 | 7.0 | 0.00 | 0.00 | 0.00 | 58 | 1023.8 |
| 20260508182309 | 56 | 58 | 3.0 | 3.0 | 0.00 | 0.00 | 0.00 | 57 | 1023.8 |
| 20260508181805 | 58 | 218 | 0.0 | 1.0 | 0.00 | 0.00 | 0.00 | 52 | 1024.1 |
| 20260508181302 | 55 | 218 | 1.0 | 2.0 | 0.00 | 0.00 | 0.00 | 56 | 1023.8 |
| 20260508180753 | 54 | 14 | 1.0 | 3.0 | 0.00 | 0.00 | 0.00 | 56 | 1024.2 |
| 20260508180250 | 56 | 88 | 3.0 | 5.0 | 0.00 | 0.00 | 0.00 | 55 | 1024.0 |
| 20260508175746 | 56 | 88 | 1.0 | 2.0 | 0.00 | 0.00 | 0.00 | 56 | 1024.1 |
| 20260508175243 | 57 | 20 | 4.0 | 7.0 | 0.00 | 0.00 | 0.00 | 56 | 1023.7 |
| 20260508174741 | 55 | 192 | 2.0 | 3.0 | 0.00 | 0.00 | 0.00 | 56 | 1024.1 |
| 20260508174238 | 56 | 21 | 3.0 | 5.0 | 0.00 | 0.00 | 0.00 | 56 | 1024.0 |
| 20260508173734 | 57 | 208 | 5.0 | 6.0 | 0.00 | 0.00 | 0.00 | 56 | 1024.1 |
| 20260508173231 | 56 | 300 | 5.0 | 6.0 | 0.00 | 0.00 | 0.00 | 57 | 1024.0 |
| 20260508172727 | 56 | 352 | 5.0 | 6.0 | 0.00 | 0.00 | 0.00 | 57 | 1024.0 |
| 20260508172225 | 56 | 134 | 5.0 | 6.0 | 0.00 | 0.00 | 0.00 | 55 | 1024.1 |
| 20260508171721 | 58 | 43 | 2.0 | 3.0 | 0.00 | 0.00 | 0.00 | 46 | 1023.7 |
| 20260508171217 | 57 | 274 | 1.0 | 1.0 | 0.00 | 0.00 | 0.00 | 46 | 1023.7 |
| 20260508170714 | 55 | 102 | 3.0 | 3.0 | 0.00 | 0.00 | 0.00 | 47 | 1024.0 |
| 20260508170212 | 56 | 261 | 4.0 | 5.0 | 0.00 | 0.00 | 0.00 | 47 | 1024.0 |
| 20260508165709 | 57 | 233 | 0.0 | 1.0 | 0.00 | 0.00 | 0.00 | 47 | 1024.0 |
| 20260508165206 | 56 | 72 | 2.0 | 2.0 | 0.00 | 0.00 | 0.00 | 47 | 1024.0 |
| 20260508164702 | 55 | 127 | 3.0 | 5.0 | 0.00 | 0.00 | 0.00 | 48 | 1024.1 |
| 20260508164159 | 55 | 203 | 1.0 | 1.0 | 0.00 | 0.00 | 0.00 | 48 | 1024.1 |
| 20260508163657 | 54 | 41 | 3.0 | 6.0 | 0.00 | 0.00 | 0.00 | 51 | 1024.4 |
| 20260508163154 | 55 | 66 | 4.0 | 8.0 | 0.00 | 0.00 | 0.00 | 51 | 1024.2 |
| 20260508162649 | 53 | 215 | 1.0 | 1.0 | 0.00 | 0.00 | 0.00 | 52 | 1024.1 |
| 20260508162147 | 54 | 261 | 1.0 | 2.0 | 0.00 | 0.00 | 0.00 | 53 | 1024.1 |
| 20260508161644 | 55 | 250 | 4.0 | 5.0 | 0.00 | 0.00 | 0.00 | 51 | 1024.0 |
| 20260508161142 | 55 | 44 | 2.0 | 2.0 | 0.00 | 0.00 | 0.00 | 52 | 1024.2 |
| 20260508160639 | 54 | 196 | 0.0 | 1.0 | 0.00 | 0.00 | 0.00 | 51 | 1024.5 |
| 20260508160136 | 53 | 114 | 2.0 | 2.0 | 0.00 | 0.00 | 0.00 | 52 | 1024.1 |
| 20260508155634 | 53 | 206 | 0.0 | 1.0 | 0.00 | 0.00 | 0.00 | 55 | 1023.8 |
| 20260508155131 | 52 | 184 | 0.0 | 0.0 | 0.00 | 0.00 | 0.00 | 58 | 1024.4 |
| 20260508154628 | 51 | 144 | 1.0 | 2.0 | 0.00 | 0.00 | 0.00 | 60 | 1024.4 |
| 20260508154124 | 50 | 102 | 2.0 | 3.0 | 0.00 | 0.00 | 0.00 | 63 | 1024.5 |
| 20260508153621 | 50 | 131 | 4.0 | 6.0 | 0.00 | 0.00 | 0.00 | 65 | 1024.5 |
| 20260508153117 | 48 | 205 | 1.0 | 1.0 | 0.00 | 0.00 | 0.00 | 71 | 1024.5 |
| 20260508152614 | 49 | 74 | 1.0 | 2.0 | 0.00 | 0.00 | 0.00 | 71 | 1024.9 |
| 20260508152109 | 49 | 220 | 0.0 | 0.0 | 0.00 | 0.00 | 0.00 | 69 | 1024.9 |
| 20260508151607 | 48 | 176 | 1.0 | 2.0 | 0.00 | 0.00 | 0.00 | 70 | 1024.6 |
| 20260508151104 | 48 | 148 | 3.0 | 5.0 | 0.00 | 0.00 | 0.00 | 69 | 1024.6 |
| 20260508150601 | 47 | 134 | 2.0 | 2.0 | 0.00 | 0.00 | 0.00 | 74 | 1024.7 |
| 20260508150057 | 46 | 158 | 1.0 | 2.0 | 0.00 | 0.00 | 0.00 | 74 | 1024.9 |
| 20260508145553 | 45 | 221 | 1.0 | 1.0 | 0.00 | 0.00 | 0.00 | 77 | 1024.6 |
| 20260508145050 | 45 | 212 | 1.0 | 1.0 | 0.00 | 0.00 | 0.00 | 77 | 1024.9 |
| 20260508144548 | 46 | 177 | 2.0 | 2.0 | 0.00 | 0.00 | 0.00 | 77 | 1025.1 |
| 20260508144045 | 45 | 201 | 0.0 | 0.0 | 0.00 | 0.00 | 0.00 | 79 | 1024.9 |
| 20260508143542 | 43 | 166 | 2.0 | 2.0 | 0.00 | 0.00 | 0.00 | 81 | 1024.9 |
| 20260508143039 | 43 | 228 | 1.0 | 2.0 | 0.00 | 0.00 | 0.00 | 83 | 1025.0 |
| 20260508142536 | 42 | 209 | 3.0 | 3.0 | 0.00 | 0.00 | 0.00 | 83 | 1025.4 |
| 20260508142032 | 42 | 342 | 4.0 | 5.0 | 0.00 | 0.00 | 0.00 | 85 | 1025.2 |
| 20260508141528 | 41 | 229 | 0.0 | 1.0 | 0.00 | 0.00 | 0.00 | 86 | 1025.1 |
| 20260508141026 | 41 | 223 | 2.0 | 2.0 | 0.00 | 0.00 | 0.00 | 88 | 1025.1 |
| 20260508140523 | 40 | 252 | 2.0 | 2.0 | 0.00 | 0.00 | 0.00 | 90 | 1025.5 |
| 20260508140019 | 39 | 224 | 0.0 | 0.0 | 0.00 | 0.00 | 0.00 | 91 | 1025.6 |
| 20260508135515 | 39 | 227 | 0.0 | 0.0 | 0.00 | 0.00 | 0.00 | 91 | 1025.5 |
| 20260508135012 | 38 | 220 | 0.0 | 0.0 | 0.00 | 0.00 | 0.00 | 92 | 1025.5 |
| 20260508134509 | 37 | 211 | 0.0 | 0.0 | 0.00 | 0.00 | 0.00 | 92 | 1025.4 |
| 20260508134006 | 37 | 214 | 0.0 | 0.0 | 0.00 | 0.00 | 0.00 | 92 | 1025.4 |
| 20260508133503 | 36 | 190 | 1.0 | 2.0 | 0.00 | 0.00 | 0.00 | 92 | 1025.6 |
| 20260508132959 | 36 | 186 | 1.0 | 1.0 | 0.00 | 0.00 | 0.00 | 93 | 1025.2 |
| 20260508132458 | 35 | 201 | 1.0 | 1.0 | 0.00 | 0.00 | 0.00 | 93 | 1025.7 |
| 20260508131954 | 35 | 222 | 0.0 | 0.0 | 0.00 | 0.00 | 0.00 | 92 | 1025.6 |
| 20260508131449 | 35 | 226 | 1.0 | 1.0 | 0.00 | 0.00 | 0.00 | 92 | 1025.2 |
| 20260508130946 | 35 | 208 | 1.0 | 1.0 | 0.00 | 0.00 | 0.00 | 92 | 1025.4 |
| 20260508130444 | 35 | 227 | 0.0 | 0.0 | 0.00 | 0.00 | 0.00 | 93 | 1025.2 |
| 20260508125939 | 34 | 208 | 1.0 | 1.0 | 0.00 | 0.00 | 0.00 | 93 | 1025.4 |
| 20260508125435 | 33 | 181 | 1.0 | 1.0 | 0.00 | 0.00 | 0.00 | 94 | 1025.2 |
| 20260508124933 | 32 | 206 | 0.0 | 0.0 | 0.00 | 0.00 | 0.00 | 95 | 1025.0 |
| 20260508124431 | 31 | 218 | 0.0 | 1.0 | 0.00 | 0.00 | 0.00 | 95 | 1024.9 |
| 20260508123928 | 31 | 256 | 0.0 | 1.0 | 0.00 | 0.00 | 0.00 | 95 | 1024.5 |
| 20260508123427 | 31 | 225 | 0.0 | 0.0 | 0.00 | 0.00 | 0.00 | 95 | 1024.5 |
| 20260508122923 | 31 | 199 | 0.0 | 1.0 | 0.00 | 0.00 | 0.00 | 95 | 1024.1 |
| 20260508122420 | 32 | 213 | 0.0 | 0.0 | 0.00 | 0.00 | 0.00 | 95 | 1024.2 |
| 20260508121917 | 31 | 191 | 1.0 | 1.0 | 0.00 | 0.00 | 0.00 | 94 | 1023.8 |
| 20260508121415 | 33 | 225 | 1.0 | 1.0 | 0.00 | 0.00 | 0.00 | 94 | 1023.8 |
| 20260508120913 | 32 | 173 | 1.0 | 1.0 | 0.00 | 0.00 | 0.00 | 94 | 1023.7 |
| 20260508120410 | 32 | 223 | 0.0 | 0.0 | 0.00 | 0.00 | 0.00 | 95 | 1024.0 |
| 20260508115908 | 32 | 117 | 5.0 | 6.0 | 0.00 | 0.00 | 0.00 | 94 | 1023.6 |
| 20260508115405 | 32 | 263 | 2.0 | 2.0 | 0.00 | 0.00 | 0.00 | 93 | 1023.6 |
| 20260508114901 | 33 | 354 | 4.0 | 5.0 | 0.00 | 0.00 | 0.00 | 91 | 1023.1 |
| 20260508114358 | 33 | 236 | 1.0 | 1.0 | 0.00 | 0.00 | 0.00 | 89 | 1023.1 |
| 20260508113855 | 33 | 165 | 3.0 | 3.0 | 0.00 | 0.00 | 0.00 | 91 | 1023.3 |
| 20260508113353 | 32 | 205 | 3.0 | 3.0 | 0.00 | 0.00 | 0.00 | 92 | 1023.2 |
| 20260508112850 | 33 | 221 | 3.0 | 3.0 | 0.00 | 0.00 | 0.00 | 90 | 1023.2 |
| 20260508112347 | 33 | 190 | 2.0 | 2.0 | 0.00 | 0.00 | 0.00 | 91 | 1023.2 |
| 20260508111843 | 34 | 225 | 0.0 | 1.0 | 0.00 | 0.00 | 0.00 | 90 | 1023.1 |
| 20260508111340 | 33 | 123 | 3.0 | 5.0 | 0.00 | 0.00 | 0.00 | 92 | 1023.3 |
| 20260508110837 | 33 | 150 | 2.0 | 3.0 | 0.00 | 0.00 | 0.00 | 93 | 1023.3 |
| 20260508110335 | 33 | 140 | 2.0 | 2.0 | 0.00 | 0.00 | 0.00 | 93 | 1023.1 |
| 20260508105835 | 33 | 137 | 5.0 | 5.0 | 0.00 | 0.00 | 0.00 | 93 | 1023.2 |
| 20260508105332 | 33 | 146 | 4.0 | 5.0 | 0.00 | 0.00 | 0.00 | 94 | 1023.1 |
| 20260508104828 | 32 | 236 | 3.0 | 3.0 | 0.00 | 0.00 | 0.00 | 94 | 1023.3 |
| 20260508104325 | 33 | 152 | 5.0 | 6.0 | 0.00 | 0.00 | 0.00 | 94 | 1023.1 |
| 20260508103822 | 33 | 238 | 2.0 | 2.0 | 0.00 | 0.00 | 0.00 | 94 | 1023.6 |
| 20260508103319 | 32 | 193 | 2.0 | 2.0 | 0.00 | 0.00 | 0.00 | 96 | 1023.3 |
| 20260508102817 | 31 | 232 | 0.0 | 0.0 | 0.00 | 0.00 | 0.00 | 96 | 1023.2 |
| 20260508102315 | 32 | 227 | 0.0 | 0.0 | 0.00 | 0.00 | 0.00 | 96 | 1023.1 |
| 20260508101812 | 31 | 192 | 2.0 | 2.0 | 0.00 | 0.00 | 0.00 | 96 | 1023.3 |
| 20260508101309 | 31 | 208 | 1.0 | 2.0 | 0.00 | 0.00 | 0.00 | 96 | 1023.1 |
| 20260508100807 | 32 | 253 | 2.0 | 2.0 | 0.00 | 0.00 | 0.00 | 95 | 1023.1 |
| 20260508100305 | 31 | 194 | 1.0 | 2.0 | 0.00 | 0.00 | 0.00 | 95 | 1022.8 |
| 20260508095800 | 32 | 82 | 1.0 | 1.0 | 0.00 | 0.00 | 0.00 | 96 | 1023.0 |
| 20260508095258 | 32 | 228 | 0.0 | 0.0 | 0.00 | 0.00 | 0.00 | 96 | 1022.8 |
| 20260508094755 | 31 | 194 | 0.0 | 1.0 | 0.00 | 0.00 | 0.00 | 96 | 1023.0 |
| 20260508094252 | 31 | 216 | 0.0 | 0.0 | 0.00 | 0.00 | 0.00 | 95 | 1022.8 |
| 20260508093749 | 31 | 208 | 1.0 | 1.0 | 0.00 | 0.00 | 0.00 | 95 | 1023.0 |
| 20260508093247 | 32 | 196 | 0.0 | 0.0 | 0.00 | 0.00 | 0.00 | 95 | 1022.8 |
| 20260508092743 | 32 | 227 | 1.0 | 1.0 | 0.00 | 0.00 | 0.00 | 94 | 1023.1 |
| 20260508092242 | 32 | 142 | 3.0 | 3.0 | 0.00 | 0.00 | 0.00 | 94 | 1022.7 |
| 20260508091739 | 32 | 242 | 1.0 | 1.0 | 0.00 | 0.00 | 0.00 | 93 | 1023.1 |
| 20260508091236 | 32 | 160 | 2.0 | 2.0 | 0.00 | 0.00 | 0.00 | 93 | 1023.0 |
| 20260508090734 | 33 | 226 | 0.0 | 0.0 | 0.00 | 0.00 | 0.00 | 93 | 1023.1 |
| 20260508090231 | 33 | 140 | 2.0 | 2.0 | 0.00 | 0.00 | 0.00 | 93 | 1023.0 |
| 20260508085721 | 33 | 226 | 0.0 | 0.0 | 0.00 | 0.00 | 0.00 | 92 | 1023.1 |
| 20260508085219 | 33 | 226 | 0.0 | 0.0 | 0.00 | 0.00 | 0.00 | 92 | 1022.8 |
| 20260508084714 | 34 | 206 | 1.0 | 1.0 | 0.00 | 0.00 | 0.00 | 91 | 1023.1 |
| 20260508084213 | 34 | 154 | 1.0 | 1.0 | 0.00 | 0.00 | 0.00 | 90 | 1023.3 |
| 20260508083710 | 35 | 229 | 0.0 | 0.0 | 0.00 | 0.00 | 0.00 | 89 | 1023.1 |
| 20260508083207 | 35 | 221 | 0.0 | 0.0 | 0.00 | 0.00 | 0.00 | 89 | 1023.1 |
| 20260508082702 | 35 | 198 | 1.0 | 1.0 | 0.00 | 0.00 | 0.00 | 90 | 1023.1 |
| 20260508082200 | 35 | 228 | 1.0 | 1.0 | 0.00 | 0.00 | 0.00 | 89 | 1023.5 |
| 20260508081657 | 36 | 186 | 0.0 | 0.0 | 0.00 | 0.00 | 0.00 | 89 | 1023.2 |
| 20260508081153 | 36 | 228 | 2.0 | 2.0 | 0.00 | 0.00 | 0.00 | 88 | 1023.2 |
| 20260508080650 | 35 | 200 | 1.0 | 1.0 | 0.00 | 0.00 | 0.00 | 89 | 1023.3 |
| 20260508080149 | 35 | 210 | 0.0 | 0.0 | 0.00 | 0.00 | 0.00 | 89 | 1023.6 |
| 20260508075644 | 35 | 187 | 1.0 | 2.0 | 0.00 | 0.00 | 0.00 | 88 | 1023.2 |
| 20260508075142 | 36 | 208 | 0.0 | 1.0 | 0.00 | 0.00 | 0.00 | 88 | 1023.5 |
| 20260508074639 | 36 | 226 | 0.0 | 0.0 | 0.00 | 0.00 | 0.00 | 87 | 1023.6 |
| 20260508074136 | 38 | 241 | 1.0 | 2.0 | 0.00 | 0.00 | 0.00 | 83 | 1023.7 |
| 20260508073633 | 39 | 221 | 0.0 | 1.0 | 0.00 | 0.00 | 0.00 | 82 | 1023.7 |
| 20260508073131 | 39 | 213 | 0.0 | 0.0 | 0.00 | 0.00 | 0.00 | 82 | 1024.0 |
| 20260508072627 | 39 | 213 | 0.0 | 0.0 | 0.00 | 0.00 | 0.00 | 81 | 1024.0 |
| 20260508072124 | 39 | 170 | 2.0 | 2.0 | 0.00 | 0.00 | 0.00 | 81 | 1023.7 |
| 20260508071621 | 38 | 157 | 2.0 | 3.0 | 0.00 | 0.00 | 0.00 | 81 | 1024.0 |
| 20260508071120 | 38 | 206 | 1.0 | 1.0 | 0.00 | 0.00 | 0.00 | 80 | 1023.8 |
| 20260508070617 | 37 | 166 | 3.0 | 3.0 | 0.00 | 0.00 | 0.00 | 82 | 1024.1 |
| 20260508070115 | 36 | 179 | 2.0 | 2.0 | 0.00 | 0.00 | 0.00 | 85 | 1024.1 |
| 20260508065612 | 36 | 128 | 2.0 | 3.0 | 0.00 | 0.00 | 0.00 | 84 | 1024.5 |
| 20260508065110 | 36 | 179 | 2.0 | 2.0 | 0.00 | 0.00 | 0.00 | 82 | 1024.5 |
| 20260508064608 | 36 | 195 | 1.0 | 1.0 | 0.00 | 0.00 | 0.00 | 84 | 1024.7 |
| 20260508064105 | 36 | 228 | 0.0 | 0.0 | 0.00 | 0.00 | 0.00 | 83 | 1024.5 |
| 20260508063602 | 35 | 165 | 2.0 | 2.0 | 0.00 | 0.00 | 0.00 | 84 | 1024.5 |
| 20260508063101 | 35 | 213 | 0.0 | 0.0 | 0.00 | 0.00 | 0.00 | 85 | 1024.1 |
| 20260508062558 | 35 | 227 | 0.0 | 0.0 | 0.00 | 0.00 | 0.00 | 85 | 1024.1 |
| 20260508062054 | 36 | 214 | 0.0 | 0.0 | 0.00 | 0.00 | 0.00 | 85 | 1024.2 |
| 20260508061552 | 35 | 148 | 3.0 | 3.0 | 0.00 | 0.00 | 0.00 | 85 | 1024.2 |
| 20260508061049 | 36 | 227 | 1.0 | 1.0 | 0.00 | 0.00 | 0.00 | 82 | 1024.2 |
| 20260508060545 | 35 | 145 | 3.0 | 3.0 | 0.00 | 0.00 | 0.00 | 84 | 1023.7 |
| 20260508060043 | 35 | 226 | 0.0 | 0.0 | 0.00 | 0.00 | 0.00 | 83 | 1024.1 |
| 20260508055538 | 35 | 182 | 2.0 | 2.0 | 0.00 | 0.11 | 0.11 | 84 | 1024.2 |